INTELSAT 19 (IS-19)

Last updated on May 20, 2019, 3:09 a.m. UTC

1 38356U 12030A   19139.48703149 -.00000067  00000-0  00000+0 0  9993
2 38356   0.0415  95.8545 0003040 318.5503 163.7957  1.00268940 25583
UTC
Height (km)
Latitude
Longitude
Inclination
Orbital Period
UTC large
Height (km)
Speed (km/s)
/
Latitude / Longitude
Inclination (degrees)
Orbital Period (minutes)
Azimuth
Elevation
Range (km)
Doppler Factor
iOS Compass Heading
iOS Angle

Next 30 passes for location: Hong Kong

Rise time Rise Azimuth (degrees) Set time Set Azimuth (degrees) Duration Max altitude (degrees)

No matching passes for this satellites